KB7YYZ Weather Reports


time (UTC)temp
F
wind
direction
speed
knots
gust
knots
rain 1hr
in
rain 24hr
in
rain mn
in
humidity
%
barometer
mb
20260510200029 102 253 1.7 1.7 0.00 0.00 0.00 8 1006.8
20260510195050 102 277 1.7 1.7 0.00 0.00 0.00 9 1006.9
20260510194057 102 287 1.7 1.7 0.00 0.00 0.00 9 1006.9
20260510193024 101 299 1.7 1.7 0.00 0.00 0.00 9 1006.9
20260510192030 100 288 1.7 1.7 0.00 0.00 0.00 9 1007.0
20260510191030 100 300 0.9 0.9 0.00 0.00 0.00 9
20260510190029 100 269 0.9 1.7 0.00 0.00 0.00 9
20260510185020 99 285 0.9 0.9 0.00 0.00 0.00 10 1007.3
20260510184025 99 323 0.9 1.7 0.00 0.00 0.00 10 1007.4
20260510183026 98 322 0.9 0.9 0.00 0.00 0.00 10 1007.5
20260510182040 97 276 1.7 1.7 0.00 0.00 0.00 11 1007.5
20260510181038 97 279 0.9 0.9 0.00 0.00 0.00 12 1007.6
20260510180038 96 275 1.7 1.7 0.00 0.00 0.00 12 1007.6
20260510175130 95 316 0.9 1.7 0.00 0.00 0.00 12 1007.6
20260510174023 94 212 0.9 1.7 0.00 0.00 0.00 12 1007.6
20260510173030 94 244 0.9 0.9 0.00 0.00 0.00 12 1007.6
20260510172020 93 223 0.9 1.7 0.00 0.00 0.00 13 1007.6
20260510171035 93 248 1.7 1.7 0.00 0.00 0.00 13 1007.7
20260510170032 92 214 0.9 0.9 0.00 0.00 0.00 13 1007.7
20260510165022 91 209 0.9 0.9 0.00 0.00 0.00 14 1007.7
20260510164027 91 201 0.9 0.9 0.00 0.00 0.00 14 1007.7
20260510163033 90 197 0.9 0.9 0.00 0.00 0.00 14 1007.7
20260510162033 89 222 0.9 0.9 0.00 0.00 0.00 15 1007.7
20260510161057 88 176 0.9 0.9 0.00 0.00 0.00 15 1007.7
20260510160035 87 193 0.9 0.9 0.00 0.00 0.00 16 1007.7
20260510155044 87 182 0.9 0.9 0.00 0.00 0.00 16 1007.7
20260510154034 86 226 0.9 0.9 0.00 0.00 0.00 17 1007.6
20260510153052 85 148 0.9 0.9 0.00 0.00 0.00 19 1007.7
20260510152029 84 170 0.0 0.9 0.00 0.00 0.00 19 1007.6
20260510151039 83 212 0.9 0.9 0.00 0.00 0.00 20 1007.6
20260510150024 82 191 0.0 0.9 0.00 0.00 0.00 20 1007.6
20260510145023 82 249 0.0 0.9 0.00 0.00 0.00 21 1007.6
20260510144020 81 223 0.0 0.9 0.00 0.00 0.00 22 1007.6
20260510143040 80 205 0.0 0.9 0.00 0.00 0.00 22 1007.6
20260510142045 79 0.0 0.0 0.00 0.00 0.00 22 1007.5
20260510141031 78 0.0 0.0 0.00 0.00 0.00 23 1007.5
20260510140023 77 0.0 0.0 0.00 0.00 0.00 23 1007.5
20260510135022 76 0.0 0.0 0.00 0.00 0.00 24 1007.4
20260510134037 75 0.0 0.0 0.00 0.00 0.00 24 1007.4
20260510133042 74 0.0 0.0 0.00 0.00 0.00 25 1007.4
20260510132029 73 0.0 0.0 0.00 0.00 0.00 25 1007.2
20260510131043 74 0.0 0.0 0.00 0.00 0.00 23 1007.1
20260510130027 74 0.0 0.0 0.00 0.00 0.00 22 1007.0
20260510125026 74 0.0 0.0 0.00 0.00 0.00 21 1006.7
20260510124039 74 68 0.0 0.0 0.00 0.00 0.00 22 1006.6
20260510123025 74 59 0.0 0.0 0.00 0.00 0.00 22 1006.6
20260510122035 74 349 0.0 0.0 0.00 0.00 0.00 22 1006.5
20260510121024 74 0.0 0.0 0.00 0.00 0.00 22 1006.3
20260510120030 74 0.0 0.0 0.00 0.00 0.00 22 1006.1
20260510115050 74 0.0 0.0 0.00 0.00 0.00 23 1006.1
20260510114022 74 0.0 0.0 0.00 0.00 0.00 23 1006.1
20260510113027 74 0.0 0.0 0.00 0.00 0.00 24 1006.1
20260510112025 74 0.0 0.0 0.00 0.00 0.00 24 1006.1
20260510111021 74 0.0 0.0 0.00 0.00 0.00 23 1006.2
20260510110019 75 0.0 0.0 0.00 0.00 0.00 23 1006.3
20260510105039 75 0.0 0.0 0.00 0.00 0.00 22 1006.2
20260510104033 76 0.0 0.0 0.00 0.00 0.00 22 1006.2
20260510103111 76 0.0 0.0 0.00 0.00 0.00 22 1006.3
20260510102025 76 0.0 0.0 0.00 0.00 0.00 22 1006.2
20260510101050 76 0.0 0.0 0.00 0.00 0.00 22 1006.0
20260510100036 77 0.0 0.0 0.00 0.00 0.00 21 1006.0
20260510095111 77 0.0 0.0 0.00 0.00 0.00 21 1005.9
20260510094048 78 0.0 0.0 0.00 0.00 0.00 21 1005.9
20260510093041 78 0.0 0.0 0.00 0.00 0.00 20 1005.7
20260510092027 79 0.0 0.0 0.00 0.00 0.00 19 1005.7
20260510091055 79 0.0 0.0 0.00 0.00 0.00 18 1005.6
20260510090027 80 58 0.0 0.9 0.00 0.00 0.00 17 1005.6
20260510085037 81 6 0.9 0.9 0.00 0.00 0.00 18 1005.5
20260510084021 81 353 0.0 0.9 0.00 0.00 0.00 19 1005.4
20260510083025 81 360 0.9 0.9 0.00 0.00 0.00 18 1005.5
20260510082030 81 351 0.9 0.9 0.00 0.00 0.00 19 1005.5
20260510081024 81 30 0.0 0.9 0.00 0.00 0.00 19 1005.6
20260510080026 81 12 0.0 0.9 0.00 0.00 0.00 19 1005.7
20260510075025 81 52 0.0 0.9 0.00 0.00 0.00 17 1005.7
20260510074102 81 0.0 0.0 0.00 0.00 0.00 17 1005.8
20260510073021 81 0.0 0.0 0.00 0.00 0.00 18 1005.8
20260510072020 81 0.0 0.0 0.00 0.00 0.00 19 1005.8
20260510071037 81 0.0 0.0 0.00 0.00 0.00 19 1005.8
20260510070048 81 0.0 0.0 0.00 0.00 0.00 19 1005.8
20260510065053 81 0.0 0.0 0.00 0.00 0.00 19
20260510064024 82 0.0 0.0 0.00 0.00 0.00 19 1005.6
20260510063030 83 0.0 0.0 0.00 0.00 0.00 18 1005.6
20260510062057 83 0.0 0.0 0.00 0.00 0.00 17 1005.5
20260510061043 83 0.0 0.0 0.00 0.00 0.00 17 1005.4
20260510060024 84 219 0.0 0.0 0.00 0.00 0.00 17 1005.3
20260510055041 84 257 0.0 0.9 0.00 0.00 0.00 17 1005.1
20260510054024 84 0.0 0.0 0.00 0.00 0.00 17 1004.8
20260510053050 84 0.0 0.0 0.00 0.00 0.00 17 1004.7
20260510052040 85 0.0 0.0 0.00 0.00 0.00 16 1004.6
20260510051020 86 0.0 0.0 0.00 0.00 0.00 16 1004.5
20260510050035 87 0.0 0.0 0.00 0.00 0.00 16 1004.4
20260510045024 87 0.0 0.0 0.00 0.00 0.00 16 1004.3
20260510044026 87 0.0 0.0 0.00 0.00 0.00 16 1004.2
20260510043026 88 0.0 0.0 0.00 0.00 0.00 16 1004.1
20260510042025 88 0.0 0.0 0.00 0.00 0.00 16 1004.0
20260510041023 88 24 0.0 0.0 0.00 0.00 0.00 15 1003.9
20260510040021 89 25 0.0 0.9 0.00 0.00 0.00 15 1003.8
20260510035019 89 331 0.0 0.0 0.00 0.00 0.00 15 1003.7
20260510034038 89 30 0.0 0.0 0.00 0.00 0.00 15 1003.5
20260510033040 89 48 0.0 0.0 0.00 0.00 0.00 16 1003.4
20260510032030 90 0.0 0.0 0.00 0.00 0.00 16 1003.2
20260510031044 90 0.0 0.0 0.00 0.00 0.00 16 1003.0
20260510030039 91 0.0 0.0 0.00 0.00 0.00 18 1002.8
20260510025050 91 0.0 0.0 0.00 0.00 0.00 17 1002.7
20260510024027 92 0.0 0.0 0.00 0.00 0.00 16 1002.6
20260510023025 93 23 0.0 0.0 0.00 0.00 0.00 11 1002.5
20260510022040 93 2 0.9 0.9 0.00 0.00 0.00 10 1002.5
20260510021022 94 358 0.9 0.9 0.00 0.00 0.00 10 1002.4
20260510020029 95 345 0.9 0.9 0.00 0.00 0.00 10 1002.4
20260510015034 95 6 0.9 0.9 0.00 0.00 0.00 10 1002.2
20260510014022 96 313 0.9 0.9 0.00 0.00 0.00 10 1002.2
20260510013035 96 334 0.9 0.9 0.00 0.00 0.00 9 1002.2
20260510012019 97 334 0.9 0.9 0.00 0.00 0.00 9 1002.2
20260510011046 97 244 0.9 0.9 0.00 0.00 0.00 9 1002.2
20260510010032 97 329 1.7 1.7 0.00 0.00 0.00 9 1002.2
20260510005026 98 276 0.9 0.9 0.00 0.00 0.00 9 1002.2
20260510004024 98 281 0.9 1.7 0.00 0.00 0.00 9 1002.2
20260510003022 98 286 1.7 1.7 0.00 0.00 0.00 9 1002.3
20260510002022 99 282 1.7 1.7 0.00 0.00 0.00 9 1002.3
20260510001028 99 281 1.7 1.7 0.00 0.00 0.00 9 1002.4
20260510000036 99 283 1.7 1.7 0.00 0.00 0.00 9 1002.5
20260509235031 99 309 2.6 2.6 0.00 0.00 0.00 9 1002.6
20260509234032 99 335 1.7 1.7 0.00 0.00 0.00 9 1002.6
20260509233019 100 307 1.7 1.7 0.00 0.00 0.00 9 1002.7
20260509232026 100 273 1.7 1.7 0.00 0.00 0.00 9 1002.8
20260509231031 100 318 2.6 2.6 0.00 0.00 0.00 9 1002.8
20260509230037 100 256 1.7 1.7 0.00 0.00 0.00 9 1003.0
20260509225045 100 277 1.7 1.7 0.00 0.00 0.00 9 1003.0
20260509224043 100 276 1.7 1.7 0.00 0.00 0.00 9 1003.3
20260509223022 101 285 2.6 2.6 0.00 0.00 0.00 9 1003.3
20260509222028 100 327 1.7 1.7 0.00 0.00 0.00 10 1003.4
20260509221025 101 16 1.7 1.7 0.00 0.00 0.00 10 1003.5
20260509220034 101 253 2.6 2.6 0.00 0.00 0.00 10 1003.7
20260509215033 100 301 1.7 1.7 0.00 0.00 0.00 10 1003.8
20260509214019 100 272 1.7 2.6 0.00 0.00 0.00 10 1004.0
20260509213029 100 260 1.7 1.7 0.00 0.00 0.00 9 1004.0
20260509212023 100 228 2.6 2.6 0.00 0.00 0.00 10 1004.2
20260509211025 101 243 1.7 1.7 0.00 0.00 0.00 10 1004.4
20260509210025 101 266 1.7 1.7 0.00 0.00 0.00 10 1004.6
20260509205022 101 216 1.7 1.7 0.00 0.00 0.00 10 1004.8
20260509204022 100 278 1.7 1.7 0.00 0.00 0.00 10
20260509203049 100 267 1.7 1.7 0.00 0.00 0.00 10 1005.1
20260509202034 100 254 1.7 2.6 0.00 0.00 0.00 10 1005.3
20260509201042 100 327 2.6 2.6 0.00 0.00 0.00 12 1005.4